Weather History for Paducah, KY

Change the Weather History Date:

Friday, October 5, 2012

  Actual Average Record
Temperature  
Mean Temperature 57 °F 62 °F  
Max Temperature 71 °F 75 °F 89 °F (1951)
Min Temperature 43 °F 50 °F 32 °F (1980)
Degree Days  
Heating Degree Days 8 5  
Month to date heating degree days 20 22  
Since 1 July heating degree days 60 61  
Cooling Degree Days 0 2  
Month to date cooling degree days 4 11  
Year to date cooling degree days 1956 1511  
Growing Degree Days 6 (Base 50)    
Moisture  
Dew Point 50 °F    
Average Humidity 80    
Maximum Humidity 93    
Minimum Humidity 66    
Precipitation  
Precipitation 0.44 in 0.14 in 4.19 in (2013)
Month to date precipitation 0.62 0.69  
Year to date precipitation 21.80 36.92  
Snow  
Snow 0.00 in 0.00 in 0.00 in (2002)
Month to date snowfall 0.0 0.0  
Since 1 July snowfall 0.0 0.0  
Since 1 September snowfall 0.0 0.0  
Snow Depth 0.00 in    
Sea Level Pressure  
Sea Level Pressure 30.11 in    
Wind  
Wind Speed 9 mph (North)    
Max Wind Speed 23 mph    
Max Gust Speed 31 mph    
Visibility 8 miles    
Events Rain , Thunderstorm    
T = Trace of Precipitation, MM = Missing Value Source: NWS Daily Summary

Daily Weather History Graph

Daily Weather History Graph

Search for Another Location

Airport:

Trip Planner

Search our weather history database for the weather conditions in past years. The results will help you decide how hot, cold, wet, or windy it might be!

Date:

Astronomy

Oct. 05, 2012 Rise Set
Actual Time 6:54 AM CDT 6:31 PM CDT
Civil Twilight 6:28 AM CDT 6:57 PM CDT
Nautical Twilight 5:58 AM CDT 7:27 PM CDT
Astronomical Twilight 5:28 AM CDT 7:57 PM CDT
Moon 10:01 PM CDT (10/5) 11:55 AM CDT (10/5)
Length of Visible Light 12h 29m
Length of Day
11h 37m
Waning Gibbous, 74% of the Moon is Illuminated
Oct 5
Waning Gibbous
Oct 8
Last Quarter
Oct 15
New
Oct 21
First Quarter
Oct 29
Full

Hourly Weather History & Observations

Time (CDT) Temp. Windchill Dew Point Humidity Pressure Visibility Wind Dir Wind Speed Gust Speed Precip Events Conditions
12:53 AM 66.9 °F - 57.0 °F 70% 30.13 in 10.0 mi SSW 5.8 mph - N/A   Clear
1:53 AM 66.0 °F - 57.0 °F 73% 30.12 in 10.0 mi South 8.1 mph - N/A   Clear
2:53 AM 64.4 °F - 57.2 °F 77% 30.12 in 10.0 mi SSW 3.5 mph - N/A   Clear
3:53 AM 63.0 °F - 57.0 °F 81% 30.11 in 10.0 mi South 3.5 mph - N/A   Clear
4:53 AM 60.1 °F - 57.0 °F 90% 30.12 in 8.0 mi NW 8.1 mph - N/A   Clear
5:53 AM 59.0 °F - 55.9 °F 90% 30.13 in 7.0 mi NNW 3.5 mph - N/A   Clear
6:53 AM 57.0 °F - 55.0 °F 93% 30.13 in 5.0 mi North 5.8 mph - N/A   Clear
7:53 AM 57.0 °F - 53.1 °F 87% 30.12 in 9.0 mi North 6.9 mph - N/A   Clear
8:53 AM 59.0 °F - 53.1 °F 81% 30.14 in 10.0 mi NE 6.9 mph - N/A   Clear
9:53 AM 61.0 °F - 54.0 °F 78% 30.14 in 10.0 mi North 4.6 mph - N/A   Clear
10:53 AM 63.0 °F - 55.0 °F 75% 30.11 in 10.0 mi NNE 4.6 mph - N/A   Scattered Clouds
11:53 AM 66.9 °F - 55.9 °F 68% 30.09 in 10.0 mi Calm Calm - N/A   Clear
12:53 PM 70.0 °F - 57.9 °F 65% 30.06 in 10.0 mi Calm Calm - N/A   Partly Cloudy
1:53 PM 69.1 °F - 59.0 °F 70% 30.03 in 10.0 mi NW 4.6 mph - N/A   Overcast
2:53 PM 68.0 °F - 59.0 °F 73% 30.00 in 10.0 mi North 8.1 mph - N/A   Overcast
3:53 PM 66.0 °F - 57.0 °F 73% 29.99 in 10.0 mi North 8.1 mph - N/A   Overcast
4:53 PM 62.1 °F - 53.1 °F 72% 30.01 in 10.0 mi NNW 15.0 mph - N/A   Overcast
5:48 PM 53.6 °F - 50.0 °F 88% 30.04 in 5.0 mi North 12.7 mph - 0.02 in Rain Rain
5:53 PM 53.1 °F - 50.0 °F 89% 30.06 in 6.0 mi NNW 19.6 mph 27.6 mph 0.02 in Rain Light Rain
6:53 PM 48.9 °F - 46.0 °F 90% 30.07 in 6.0 mi NNE 16.1 mph 25.3 mph 0.07 in Rain Light Rain
7:03 PM 48.2 °F - 44.6 °F 87% 30.10 in 9.0 mi North 18.4 mph 31.1 mph 0.01 in Rain Light Rain
7:46 PM 46.4 °F 40.7 °F 44.6 °F 93% 30.11 in 4.0 mi North 12.7 mph 23.0 mph 0.09 in Rain , Thunderstorm Heavy Thunderstorms and Rain
7:53 PM 46.9 °F - 44.1 °F 90% 30.11 in 7.0 mi North 12.7 mph - 0.10 in Rain , Thunderstorm Light Thunderstorms and Rain
8:17 PM 46.4 °F 40.1 °F 42.8 °F 87% 30.12 in 10.0 mi North 15.0 mph 24.2 mph 0.01 in Thunderstorm Thunderstorm
8:36 PM 46.4 °F 40.1 °F 42.8 °F 87% 30.13 in 10.0 mi North 15.0 mph 21.9 mph 0.02 in Rain Light Rain
8:53 PM 46.0 °F 39.6 °F 43.0 °F 89% 30.14 in 10.0 mi North 15.0 mph 20.7 mph 0.02 in Rain Light Rain
9:20 PM 44.6 °F 37.4 °F 41.0 °F 87% 30.13 in 10.0 mi North 16.1 mph - 0.00 in Rain , Thunderstorm Light Thunderstorms and Rain
9:35 PM 44.6 °F 36.1 °F 41.0 °F 87% 30.13 in 10.0 mi North 21.9 mph 28.8 mph 0.00 in Rain , Thunderstorm Light Thunderstorms and Rain
9:53 PM 44.1 °F 36.5 °F 41.0 °F 89% 30.13 in 10.0 mi NNE 17.3 mph 23.0 mph 0.01 in Rain , Thunderstorm Light Thunderstorms and Rain
10:06 PM 44.6 °F 37.2 °F 41.0 °F 87% 30.13 in 10.0 mi NNE 17.3 mph 24.2 mph 0.00 in Thunderstorm Thunderstorm
10:25 PM 44.6 °F 38.1 °F 41.0 °F 87% 30.16 in 5.0 mi North 13.8 mph 18.4 mph 0.02 in Rain Rain
10:46 PM 42.8 °F 36.2 °F 41.0 °F 93% 30.15 in 4.0 mi NNE 12.7 mph 19.6 mph 0.15 in Rain Rain
10:53 PM 43.0 °F 37.2 °F 41.0 °F 93% 30.15 in 6.0 mi North 10.4 mph - 0.16 in Rain Rain
11:30 PM 42.8 °F 38.6 °F 41.0 °F 93% 30.16 in 10.0 mi Variable 6.9 mph - 0.06 in Rain Light Rain
11:53 PM 43.0 °F 37.7 °F 41.0 °F 93% 30.16 in 10.0 mi North 9.2 mph - 0.06 in   Overcast